www.pogodaiklimat.ru

Погода и климат >> Архив погоды >> Россия >> Красноярский край >> Караул


ПОГОДА в Карауле

  • Прогноз погоды в Карауле
  • Монитор погоды в Карауле

АРХИВ ПОГОДЫ в Карауле

Время (UTC), дата Ветер
(напр.,м/с)
 
Видим.   Явления Облачность Т
(С)
Тd
(С)
f
(%)
Тe
(С)
Тes
(С)
Комфортность P
(гПа)
Po
(гПа)
Тmin
(С)
Tmax
(С)
R
(мм)
R24
(мм)
S
(см)
03 17.03 штиль 0 4000 м дымка 8/0 2000 м
[Ac trans Ci]
-27.2 -30.3 75 -27 -26 1024.3 1020.3 -29.3
06 17.03 В 2 20 км 8/0 2000 м
[Ac trans Ci fib]
-24.3 -27.5 75 -31 -29 опасность
обморожения
1024.3 1020.3
09 17.03 В 4 20 км 10/0 2000 м
[Ac trans Cs]
-21.1 -23.6 80 -30 -30 1024.3 1020.3
12 17.03 ЮВ 4 20 км 10/0 2000 м
[Ac trans Cs]
-20.8 -23.3 80 -30 -30 1024.5 1020.5 -20.8
15 17.03 В 3 20 км 4/0 2000 м
[Ac trans]
-20.5 -23.0 80 -28 -28 1024.9 1020.9
18 17.03 В 5 20 км 6/0 2000 м
[Ac trans]
-21.2 -23.7 80 -32 -32 опасность
обморожения
1024.7 1020.7
21 17.03 ЮВ 5 20 км 10/0 2000 м
[Ac trans Cs]
-21.8 -24.3 80 -32 -32 опасность
обморожения
1024.4 1020.4
00 18.03 ЮВ 5 4000 м слаб. снег 10/0 2000 м
[Ac trans Cs]
-16.4 -19.0 80 -26 -26 1023.3 1019.4 -22.0 0.5 68
03 18.03 Ю 5 2000 м снег 10/0 2000 м
[As op]
-13.7 -15.7 85 -22 -22 1021.1 1017.2
06 18.03 Ю 3 2000 м снег 10/0 2000 м
[As op]
-11.9 -13.9 85 -18 -17 1021.4 1017.6
09 18.03 Ю 4 20 км {снег} 10/0 2000 м
[Ac As]
-10.8 -14.4 75 -18 -17 1021.5 1017.7
12 18.03 Ю 5 20 км {ливн. осадки, снег} 10/4 600 м
[Cb cap Ac As]
-12.0 -14.7 80 -20 -20 1021.5 1017.7 -10.8 2
15 18.03 Ю 6 20 км позёмок 10/0 2000 м
[Ac As]
-13.6 -16.3 80 -23 -23 1021.1 1017.2
18 18.03 Ю 6 20 км позёмок 10/0 2000 м
[Ac trans Cs]
-13.5 -16.2 80 -23 -23 1020.1 1016.2
21 18.03 Ю 5 4000 м слаб. снег 10/0 2000 м
[As op]
-12.5 -14.5 85 -21 -21 1019.4 1015.6
00 19.03 Ю 5 4000 м слаб. снег {метель} 10/0 2000 м
[As op]
-12.5 -14.5 85 -21 -21 1018.8 1015.0 -13.8 0.4 70
03 19.03 Ю 4 4000 м слаб. снег 10/0 2000 м
[Ac trans Cs]
-12.2 -14.2 85 -19 -19 1018.4 1014.6
06 19.03 Ю 4 2000 м сильн. снег {ливн. осадки} 10/8 600 м
[Cb cap Ac trans]
-9.5 -11.1 88 -16 -16 1017.9 1014.1
09 19.03 ЮЗ 4 20 км осадки на расстоянии {ливн. осадки} 10/10 600 м
[Cb cap]
-7.4 -9.1 88 -14 -14 1017.7 1014.0
12 19.03 Ю 6 2000 м слаб. ливневой снег {метель} 10/10 600 м
[Cb cap]
-6.5 -7.7 91 -15 -15 1016.8 1013.1 -6.5 2
15 19.03 Ю 4 4000 м слаб. ливневой снег {метель} 10/10 600 м
[Cb cap]
-6.0 -7.1 92 -13 -13 1016.6 1012.9
18 19.03 ЮЗ 4 20 км позёмок {ливн. осадки} 10/10 600 м
[Cb cap]
-6.8 -8.0 91 -14 -14 1016.6 1012.9
21 19.03 ЮЗ 4 20 км позёмок 10/10 600 м
[Cb cap]
-7.2 -8.5 90 -14 -14 1017.2 1013.5
00 20.03 Ю 2 2000 м дымка 10/10 600 м
[Cb cap]
-8.4 -9.4 92 -13 -13 1018.8 1015.0 -8.6 0.6 75
03 20.03 штиль 0 4000 м дымка 10/10 300 м
[Sc]
-7.5 -8.4 93 -8 -8 1018.4 1014.7
06 20.03 Ю 5 20 км 10/10 300 м
[Sc]
-6.6 -7.1 96 -14 -14 1017.6 1013.9
09 20.03 Ю 6 2000 м слаб. ливневой снег {метель} 9/5 300 м
[Cb cap Ac trans Cs]
-7.2 -7.7 96 -16 -15 1016.5 1012.8
12 20.03 ЮВ 8-10
{11}
2000 м снег {метель} 10/0 300 м
[As op]
-7.0 -7.9 93 -16 -16 1013.4 1009.7 -6.6 0.3
15 20.03 ЮВ 10-12
{13}
2000 м снег {метель} 10/0 300 м
[As op]
-5.9 -7.0 92 -16 -16 1011.1 1007.4
18 20.03 ЮВ 11-14
{14}
2000 м снег {метель} 10/0 300 м
[As op]
-5.0 -6.0 93 -15 -15 1007.0 1003.3
21 20.03 ЮВ 10-13
{14}
2000 м снег {метель} 10/0 300 м
[As op]
-4.0 -4.5 96 -14 -14 1001.7 998.0
00 21.03 Ю 7-10
{13}
2000 м снег {метель} 10/0 300 м
[As op]
-3.4 -4.2 94 -12 -12 998.1 994.5 -7.2 3 91
03 21.03 ЮЗ 8-11
{11}
20 км позёмок {снег} 10/10 600 м
[Sc]
-4.7 -6.0 91 -14 -14 997.4 993.8
06 21.03 З 7-10
{11}
20 км позёмок {снег} 10/10 600 м
[Sc]
-6.9 -8.5 88 -16 -16 998.2 994.5
09 21.03 З 6
{10}
20 км позёмок 10/10 600 м
[Sc]
-5.3 -7.4 85 -13 -13 999.1 995.4
12 21.03 З 7 20 км позёмок 9/9 600 м
[Sc]
-5.7 -7.5 87 -14 -14 999.8 996.1 -3.4 0.7
15 21.03 З 4 4000 м слаб. снег {метель} 10/10 600 м
[Sc]
-6.4 -8.3 86 -13 -13 1000.0 996.3
18 21.03 З 6 4000 м слаб. снег {метель} 10/0 2000 м
[Ac trans Cs]
-7.5 -9.2 88 -16 -16 1000.5 996.8
21 21.03 З 6 4000 м слаб. снег {метель} 10/0 2000 м
[Ac trans Cs]
-9.2 -10.8 88 -18 -18 1002.5 998.8
00 22.03 С 4 20 км {снег, метель} 6/0 2000 м
[Ac trans]
-15.4 -17.3 85 -23 -23 1002.8 999.0 -15.6 0.4 87
03 22.03 С 4 20 км 4/0 2000 м
[Ac trans]
-15.2 -17.2 85 -23 -22 1006.4 1002.6
06 22.03 С 1 20 км 3/0 2000 м
[Ac trans]
-14.8 -18.2 75 -17 -14 1008.6 1004.8
09 22.03 С 2 20 км 3/0 2000 м
[Ac trans]
-14.4 -17.9 75 -19 -18 1010.8 1007.0
12 22.03 штиль 0 20 км ясно -17.1 -20.5 75 -17 -17 1012.7 1008.9 -14.4
15 22.03 В 4 20 км ясно -19.0 -21.6 80 -28 -28 1014.3 1010.4
18 22.03 В 4 20 км ясно -21.7 -24.2 80 -31 -31 опасность
обморожения
1015.4 1011.5
21 22.03 штиль 0 20 км ясно -24.2 -26.6 80 -24 -24 1015.9 1011.9
00 23.03 штиль 0 20 км ясно -25.0 -27.4 80 -25 -25 1015.7 1011.7 -25.2 86
03 23.03 В 4 20 км ясно -25.8 -28.2 80 -36 -35 опасность
обморожения
1015.4 1011.4 -27.7
06 23.03 В 6 20 км позёмок 6/0
[Ac trans]
-23.6 -26.1 80 -35 -35 опасность
обморожения
1014.9 1010.9
09 23.03 ЮВ 7-10
{10}
10 км слаб. снег {метель} 9/9 600 м
[Sc]
-19.3 -21.9 80 -31 -31 опасность
обморожения
1014.1 1010.2
12 23.03 ЮВ 7-10
{10}
4000 м слаб. снег {метель} 10/10 600 м
[Sc]
-16.9 -19.5 80 -28 -28 1012.9 1009.1 -16.9 0.2
15 23.03 ЮВ 7
{10}
4000 м слаб. снег {метель} 10/10 600 м
[Sc]
-15.2 -17.9 80 -26 -26 1011.9 1008.1
18 23.03 ЮВ 4 4000 м слаб. снег {метель} 10/0
[As op]
-13.0 -15.7 80 -20 -20 1011.6 1007.8
21 23.03 ЮВ 4 4000 м слаб. снег 10/0
[As op]
-12.8 -15.5 80 -20 -20 1011.6 1007.8
00 24.03 штиль 0 4000 м слаб. снег 10/6 600 м
[Sc Ac trans Cs]
-13.6 -16.3 80 -14 -14 1011.6 1007.8 -13.8 2 89

 

Местоположение метеостанции Караул (Красноярский край, Россия): широта 70.08 долгота 83.17 высота над уровнем моря 29 м.

В архиве по умолчанию представлена погода в Карауле за последнюю неделю. Архивные данные за месяц целиком и за предыдущие месяцы, начиная с января 2011 года, Вы можете получить, выбрав интересующий диапазон дат из раскрывающегося списка и нажав кнопку "Ввод!".


*Определитесь, кто Вы:
робот инопланетянин человек

Внимание! Время в таблицах - всемирное. Для получения местного времени необходимо прибавить поправку, которая равна 7 ч.

Смотрите также архив погоды в соседних городах и на ближайших метеорологических станциях:

Погода в Гыде (Ямало-Ненецкий АО, Россия) (196 км)
Погода в Потапово (Красноярский край, Россия) (198 км)
Погода в Сопочной Карге (Красноярский край, Россия) (200 км)
Погода в Норильске (Красноярский край, Россия) (215 км)
Погода в Крестах Таймырских (Красноярский край, Россия) (265 км)
Погода в Антипаюте (Ямало-Ненецкий АО, Россия) (269 км)
Погода в Снежногорске (Красноярский край, Россия) (286 км)
Погода в Игарке (Красноярский край, Россия) (321 км)
Погода в Тазовском (Ямало-Ненецкий АО, Россия) (341 км)
Погода в Горбиачине (Красноярский край, Россия) (345 км)

Пояснения к столбцам:

Ветер - указаны скорость ветра в м/с - средняя за 10 мин, порывы в срок и между сроками (в фигурных скобках) и направление, откуда дует ветер: С - северный, СВ - северо-восточный, В - восточный, ЮВ - юго-восточный, Ю - южный, ЮЗ - юго-западный, З - западный, СЗ - северо-западный.
Видимость - горизонтальная дальность видимости в метрах или километрах. При видимости от 1 до 10 км при отсутствии осадков обычно наблюдается дымка, при ухудшении видимости до 1 км и менее - туман. В сухую погоду видимость может ухудшаться дымом, пылью или мглою.
Явления - указаны атмосферные явления, наблюдавшиеся в срок или в последний час перед сроком; фигурными скобками обозначены явления, наблюдавшиеся между сроками (за 1-3 часа до срока); квадратными скобками обозначены град или гололедные отложения с указанием их диаметра в мм.
Облачность - указаны через наклонную черту общая и нижняя облачность в баллах и высота нижней границы облаков в метрах; квадратными скобками обозначены формы облаков: Ci - перистые, Cs - перисто-слоистые, Cc - перисто-кучевые, Ac - высококучевые, As - высокослоистые, Sc - слоисто-кучевые, Ns - слоисто-дождевые, Cu - кучевые, Cb - кучево-дождевые. Подробнее классификацию облаков см. в Атласе облаков (PDF).
T - Температура воздуха - температура, измеренная на высоте 2 м над землей.
Td - Температура точки росы - температура, при понижении до которой содержащийся в воздухе водяной пар достигнет насыщения.
f - Относительная влажность воздуха - влажноcть воздуха, измеренная на высоте 2 м над землей.
Te - Эффективная температура - температура, которую ощущает одетый по сезону человек в тени. Характеристика душности погоды. При расчете учитывается влияние влажности воздуха и скорости ветра на теплоощущения человека.
Tes - Эффективная температура на солнце - температура, которую ощущает человек, с поправкой на солнечный нагрев. Характеристика знойности погоды. Зависит от высоты солнца над горизонтом, облачности и скорости ветра. Ночью, в пасмурную погоду, а также при ветре 12 м/с и более поправка равна нулю.
P - Атмосферное давление - приведенное к уровню моря атмосферное давление.
Po - Атмосферное давление - измеренное на уровне метеостанции атмосферное давление.
Tmin - Минимальная температура - минимум температуры воздуха на высоте 2 м над землей.
Tmax - Максимальная температура - максимум температуры воздуха на высоте 2 м над землей.
R - Количество осадков - Количество выпавших осадков за период времени, мм. При наведении курсора мыши на число - период времени, за который выпало указанное количество осадков.
R24 - Количество осадков - Количество выпавших осадков за 24 часа, мм.
S - Снежный покров - Высота снежного покрова, см. При наведении курсора мыши на число - состояние снежного покрова и степень покрытия местности в баллах.